Flag for Germany Weather past 2 weeks in Potsdam, Brandenburg, Germany

Now
41 °F

Partly sunny.


Feels Like: 36 °F
Forecast: 33 / 45 °F
Wind: 7 mph from West

Location: Potsdam

Current Time: Mar 4, 2015 at 5:49:35 PM

Latest Report: Mar 4, 2015 at 5:00 PM


Visibility: 17 mi

Pressure: 30.16 "Hg

Humidity: 73%

Dew point: 33 °F

Location of PotsdamLocation

Historic Weather in Potsdam — Graph

°F

Potsdam temperature yesterday

Maximum temperature yesterday: 46 °F (at 3:00 PM)
Minimum temperature yesterday: 33 °F (at 12:00 AM)
Average temperature yesterday: 39 °F

Past Weeks' High & Low Weather Summary

 TemperatureHumidityPressure
High51 °F (Feb 27, 2:00 PM)99% (Feb 24, 1:00 AM)30.74 "Hg (Feb 24, 1:00 AM)
Low26 °F (Feb 20, 6:00 AM)39% (Feb 27, 3:00 PM)29.38 "Hg (Feb 21, 12:00 PM)
Average38 °F80%29.93 "Hg
* Reported Feb 17 4:00 PM — Mar 4 4:00 PM, Potsdam, Weather by CustomWeather, © 2015

Note: Actual official high and low records may vary slightly from our data, if they occured in-between our weather recording intervals... More about our weather records

Advertising

Potsdam weather history for previous 24 hours

 ConditionsComfort  
Time TempWeatherWind HumidityBarometerVisibility
4:00 PM
Wed, Mar 4
41 °FSprinkles. Overcast.6 mph85%30.15 "Hg12 mi
3:00 PM42 °FSprinkles. Overcast.6 mph76%30.14 "Hg12 mi
2:00 PM43 °FOvercast.8 mph71%30.14 "Hg16 mi
1:00 PM41 °FLight rain. Overcast.7 mph73%30.14 "Hg12 mi
12:00 PM41 °FLight rain. Overcast.8 mph72%30.12 "Hg17 mi
11:00 AM43 °FPartly sunny.7 mph70%30.11 "Hg22 mi
10:00 AM40 °FPassing clouds.8 mph75%30.11 "Hg25 mi
9:00 AM36 °FScattered clouds.8 mph85%30.09 "Hg22 mi
8:00 AM34 °FPassing clouds.7 mph92%30.06 "Hg10 mi
7:00 AM33 °FPartly sunny.7 mph93%30.05 "Hg9 mi
6:00 AM34 °FPassing clouds.7 mph95%30.03 "Hg16 mi
5:00 AM34 °FPassing clouds.7 mph93%30.01 "Hg16 mi
4:00 AM34 °FPassing clouds.8 mph93%29.99 "Hg16 mi
3:00 AM35 °FPassing clouds.6 mph92%29.98 "Hg19 mi
2:00 AM36 °FLow clouds.8 mph92%29.97 "Hg19 mi
1:00 AM37 °FLow clouds.9 mph92%29.95 "Hg22 mi
12:00 AM37 °FOvercast.7 mph93%29.93 "Hg25 mi
11:00 PM
Tue, Mar 3
39 °FLight rain. Overcast.7 mph95%29.91 "Hg22 mi
10:00 PM40 °FLight rain. Overcast.6 mph92%29.91 "Hg16 mi
9:00 PM38 °FOvercast.6 mph93%29.90 "Hg22 mi
8:00 PM38 °FOvercast.6 mph93%29.93 "Hg19 mi
7:00 PM40 °FLight rain. Low clouds.8 mph87%29.96 "Hg9 mi
6:00 PM44 °FOvercast.6 mph60%29.95 "Hg19 mi
5:00 PM44 °FOvercast.3 mph58%29.97 "Hg19 mi
Weather by CustomWeather, © 2015

See weather overviewHow to use our weather pages